Location: ??
(35.5386°N, 139.7291°E)
Time: 20:58:15
(UTC+00:00)

Meteor 1-26 Rocket - Pass Details

Date: 13 December 2025
Orbit: 804 x 928 km, 81.3° (Epoch: 22 April)

Event Time Altitude Azimuth Distance (km) Brightness Sun altitude
Exits shadow 19:51:22 - 353° (N) 2,776 6.7 -21.9°
Reaches altitude 10° 19:52:08 10° 354° (N) 2,482 6.4 -21.7°
Maximum altitude 19:57:47 82° 82° (E) 883 4.3 -20.6°
Drops below altitude 10° 20:03:36 10° 170° (S) 2,552 7.0 -19.4°
Sets 20:06:05 0° 171° (S) 3,505 7.7 -19.0°
